Time,TemperatureF,DewpointF,PressureIn,WindDirection,WindDirectionDegrees,WindSpeedMPH,WindSpeedGustMPH,Humidity,HourlyPrecipIn,Conditions,Clouds,dailyrainin,SoftwareType,DateUTC
2013-07-04 00:01:00,72.1,49.6,29.77,SW,228,4.0,8.0,45,0.00,,,0.00,VWS V14.01,2013-07-04 06:01:00,
2013-07-04 00:06:00,72.1,50.2,29.77,SW,229,3.0,4.0,46,0.00,,,0.00,VWS V14.01,2013-07-04 06:06:00,
2013-07-04 00:11:00,70.2,50.2,29.77,SW,236,3.0,5.0,49,0.00,,,0.00,VWS V14.01,2013-07-04 06:11:00,
2013-07-04 00:16:00,68.2,49.9,29.77,WNW,284,6.0,6.0,52,0.00,,,0.00,VWS V14.01,2013-07-04 06:16:00,
2013-07-04 00:21:00,66.8,49.6,29.77,WNW,284,1.0,6.0,54,0.00,,,0.00,VWS V14.01,2013-07-04 06:21:00,
2013-07-04 00:26:00,65.7,49.6,29.77,WNW,284,3.0,6.0,56,0.00,,,0.00,VWS V14.01,2013-07-04 06:26:00,
2013-07-04 00:31:00,64.8,49.7,29.77,WNW,284,0.0,6.0,58,0.00,,,0.00,VWS V14.01,2013-07-04 06:31:00,
2013-07-04 00:36:00,63.6,52.0,29.78,WNW,284,0.0,3.0,66,0.00,,,0.00,VWS V14.01,2013-07-04 06:36:00,
2013-07-04 00:41:00,62.9,50.1,29.77,WNW,284,0.0,3.0,63,0.00,,,0.00,VWS V14.01,2013-07-04 06:41:00,
2013-07-04 00:46:00,63.6,49.9,29.78,WNW,284,0.0,3.0,61,0.00,,,0.00,VWS V14.01,2013-07-04 06:46:00,
2013-07-04 00:51:00,63.5,50.3,29.78,WNW,284,1.0,3.0,62,0.00,,,0.00,VWS V14.01,2013-07-04 06:51:00,
2013-07-04 00:56:00,63.5,50.3,29.78,WNW,284,0.0,3.0,62,0.00,,,0.00,VWS V14.01,2013-07-04 06:56:00,
2013-07-04 01:01:00,63.9,50.6,29.78,WNW,284,0.0,3.0,62,0.00,,,0.00,VWS V14.01,2013-07-04 07:01:00,
2013-07-04 01:06:00,63.1,50.7,29.78,WNW,284,0.0,0.0,64,0.00,,,0.00,VWS V14.01,2013-07-04 07:06:00,
2013-07-04 01:11:00,62.6,50.3,29.78,WNW,284,0.0,0.0,64,0.00,,,0.00,VWS V14.01,2013-07-04 07:11:00,
2013-07-04 01:16:00,62.5,50.6,29.78,WNW,284,0.0,0.0,65,0.00,,,0.00,VWS V14.01,2013-07-04 07:16:00,
2013-07-04 01:21:00,62.5,50.2,29.78,WNW,284,0.0,0.0,64,0.00,,,0.00,VWS V14.01,2013-07-04 07:21:00,
2013-07-04 01:26:00,63.0,50.2,29.78,WNW,284,0.0,1.0,63,0.00,,,0.00,VWS V14.01,2013-07-04 07:26:00,
2013-07-04 01:31:00,63.6,49.9,29.78,WNW,284,0.0,1.0,61,0.00,,,0.00,VWS V14.01,2013-07-04 07:31:00,
2013-07-04 01:36:00,63.9,50.6,29.78,East,89,3.0,5.0,62,0.00,,,0.00,VWS V14.01,2013-07-04 07:36:00,
2013-07-04 01:41:00,61.5,50.5,29.78,ENE,76,0.0,5.0,67,0.00,,,0.00,VWS V14.01,2013-07-04 07:41:00,
2013-07-04 01:46:00,60.9,50.3,29.78,ENE,76,0.0,5.0,68,0.00,,,0.00,VWS V14.01,2013-07-04 07:46:00,
2013-07-04 01:51:00,60.5,49.9,29.78,ENE,76,0.0,5.0,68,0.00,,,0.00,VWS V14.01,2013-07-04 07:51:00,
2013-07-04 01:56:00,60.4,49.8,29.78,ENE,76,0.0,5.0,68,0.00,,,0.00,VWS V14.01,2013-07-04 07:56:00,
2013-07-04 02:01:00,60.8,49.8,29.78,ENE,76,0.0,5.0,67,0.00,,,0.00,VWS V14.01,2013-07-04 08:01:00,
2013-07-04 02:06:00,60.8,50.2,29.78,ENE,76,1.0,5.0,68,0.00,,,0.00,VWS V14.01,2013-07-04 08:06:00,
2013-07-04 02:11:00,60.2,50.0,29.78,NW,304,5.0,5.0,69,0.00,,,0.00,VWS V14.01,2013-07-04 08:11:00,
2013-07-04 02:16:00,59.0,50.7,29.78,NW,304,3.0,5.0,74,0.00,,,0.00,VWS V14.01,2013-07-04 08:16:00,
2013-07-04 02:21:00,58.4,50.5,29.78,WNW,293,3.0,5.0,75,0.00,,,0.00,VWS V14.01,2013-07-04 08:21:00,
2013-07-04 02:26:00,58.4,50.2,29.78,WNW,293,2.0,5.0,74,0.00,,,0.00,VWS V14.01,2013-07-04 08:26:00,
2013-07-04 02:31:00,58.7,50.1,29.78,WNW,293,3.0,5.0,73,0.00,,,0.00,VWS V14.01,2013-07-04 08:31:00,
2013-07-04 02:36:00,59.0,50.0,29.78,WNW,290,0.0,5.0,72,0.00,,,0.00,VWS V14.01,2013-07-04 08:36:00,
2013-07-04 02:41:00,60.3,49.7,29.78,WNW,290,0.0,5.0,68,0.00,,,0.00,VWS V14.01,2013-07-04 08:41:00,
2013-07-04 02:46:00,61.0,50.0,29.78,WNW,290,3.0,5.0,67,0.00,,,0.00,VWS V14.01,2013-07-04 08:46:00,
2013-07-04 02:51:00,61.3,49.9,29.78,WNW,282,7.0,8.0,66,0.00,,,0.00,VWS V14.01,2013-07-04 08:51:00,
2013-07-04 02:56:00,61.5,50.0,29.78,West,279,3.0,8.0,66,0.00,,,0.00,VWS V14.01,2013-07-04 08:56:00,
2013-07-04 03:01:00,61.8,49.9,29.77,West,275,4.0,8.0,65,0.00,,,0.00,VWS V14.01,2013-07-04 09:01:00,
2013-07-04 03:06:00,61.6,50.1,29.77,West,275,1.0,6.0,66,0.00,,,0.00,VWS V14.01,2013-07-04 09:06:00,
2013-07-04 03:11:00,61.1,49.7,29.78,West,275,3.0,6.0,66,0.00,,,0.00,VWS V14.01,2013-07-04 09:11:00,
2013-07-04 03:16:00,60.2,50.0,29.78,West,275,0.0,6.0,69,0.00,,,0.00,VWS V14.01,2013-07-04 09:16:00,
2013-07-04 03:21:00,59.8,49.6,29.78,West,275,0.0,6.0,69,0.00,,,0.00,VWS V14.01,2013-07-04 09:21:00,
2013-07-04 03:26:00,59.7,49.5,29.78,West,275,0.0,6.0,69,0.00,,,0.00,VWS V14.01,2013-07-04 09:26:00,
2013-07-04 03:31:00,59.8,49.6,29.78,West,275,0.0,6.0,69,0.00,,,0.00,VWS V14.01,2013-07-04 09:31:00,
2013-07-04 03:36:00,59.7,49.5,29.78,West,275,0.0,4.0,69,0.00,,,0.00,VWS V14.01,2013-07-04 09:36:00,
2013-07-04 03:41:00,59.7,49.5,29.78,West,275,0.0,4.0,69,0.00,,,0.00,VWS V14.01,2013-07-04 09:41:00,
2013-07-04 03:46:00,59.8,49.6,29.78,West,275,0.0,4.0,69,0.00,,,0.00,VWS V14.01,2013-07-04 09:46:00,
2013-07-04 03:51:00,59.7,49.1,29.78,West,275,0.0,4.0,68,0.00,,,0.00,VWS V14.01,2013-07-04 09:51:00,
2013-07-04 03:56:00,59.6,49.4,29.78,West,275,0.0,4.0,69,0.00,,,0.00,VWS V14.01,2013-07-04 09:56:00,
2013-07-04 04:01:00,59.0,48.9,29.78,West,275,1.0,4.0,69,0.00,,,0.00,VWS V14.01,2013-07-04 10:01:00,
2013-07-04 04:06:00,58.1,49.5,29.78,West,280,3.0,5.0,73,0.00,,,0.00,VWS V14.01,2013-07-04 10:06:00,
2013-07-04 04:11:00,56.9,49.1,29.78,West,280,0.0,5.0,75,0.00,,,0.00,VWS V14.01,2013-07-04 10:11:00,
2013-07-04 04:16:00,57.3,49.1,29.78,West,274,6.0,7.0,74,0.00,,,0.00,VWS V14.01,2013-07-04 10:16:00,
2013-07-04 04:21:00,59.0,48.9,29.77,SW,223,0.0,8.0,69,0.00,,,0.00,VWS V14.01,2013-07-04 10:21:00,
2013-07-04 04:26:00,59.6,48.6,29.78,SW,224,0.0,8.0,67,0.00,,,0.00,VWS V14.01,2013-07-04 10:26:00,
2013-07-04 04:31:00,59.0,48.9,29.78,SSE,150,4.0,8.0,69,0.00,,,0.00,VWS V14.01,2013-07-04 10:31:00,
2013-07-04 04:36:00,57.0,48.8,29.78,SE,144,0.0,5.0,74,0.00,,,0.00,VWS V14.01,2013-07-04 10:36:00,
2013-07-04 04:41:00,56.7,48.5,29.77,SE,144,2.0,5.0,74,0.00,,,0.00,VWS V14.01,2013-07-04 10:41:00,
2013-07-04 04:46:00,57.2,48.6,29.77,SSW,199,0.0,5.0,73,0.00,,,0.00,VWS V14.01,2013-07-04 10:46:00,
2013-07-04 04:51:00,56.6,48.8,29.78,ESE,113,1.0,6.0,75,0.00,,,0.00,VWS V14.01,2013-07-04 10:51:00,
2013-07-04 04:56:00,55.7,48.6,29.78,ESE,113,4.0,6.0,77,0.00,,,0.00,VWS V14.01,2013-07-04 10:56:00,
2013-07-04 05:01:00,55.2,48.5,29.78,ESE,113,2.0,6.0,78,0.00,,,0.00,VWS V14.01,2013-07-04 11:01:00,
2013-07-04 05:06:00,55.3,48.9,29.78,ESE,113,5.0,5.0,79,0.00,,,0.00,VWS V14.01,2013-07-04 11:06:00,
2013-07-04 05:11:00,55.0,49.0,29.78,ESE,113,2.0,5.0,80,0.00,,,0.00,VWS V14.01,2013-07-04 11:11:00,
2013-07-04 05:16:00,54.5,48.8,29.78,ESE,113,2.0,5.0,81,0.00,,,0.00,VWS V14.01,2013-07-04 11:16:00,
2013-07-04 05:21:00,53.9,48.5,29.78,ESE,113,1.0,5.0,82,0.00,,,0.00,VWS V14.01,2013-07-04 11:21:00,
2013-07-04 05:26:00,53.7,48.0,29.78,ESE,113,0.0,5.0,81,0.00,,,0.00,VWS V14.01,2013-07-04 11:26:00,
2013-07-04 05:31:00,53.7,48.0,29.78,South,181,1.0,5.0,81,0.00,,,0.00,VWS V14.01,2013-07-04 11:31:00,
2013-07-04 05:36:00,54.2,48.2,29.78,South,181,0.0,3.0,80,0.00,,,0.00,VWS V14.01,2013-07-04 11:36:00,
2013-07-04 05:41:00,54.8,48.1,29.78,South,181,0.0,3.0,78,0.00,,,0.00,VWS V14.01,2013-07-04 11:41:00,
2013-07-04 05:46:00,54.9,48.2,29.79,South,181,0.0,3.0,78,0.00,,,0.00,VWS V14.01,2013-07-04 11:46:00,
2013-07-04 05:51:00,54.8,47.7,29.78,South,181,0.0,3.0,77,0.00,,,0.00,VWS V14.01,2013-07-04 11:51:00,
2013-07-04 05:56:00,55.0,47.6,29.79,South,181,0.0,3.0,76,0.00,,,0.00,VWS V14.01,2013-07-04 11:56:00,
2013-07-04 06:01:00,55.2,47.8,29.79,South,181,0.0,3.0,76,0.00,,,0.00,VWS V14.01,2013-07-04 12:01:00,
2013-07-04 06:06:00,55.3,47.9,29.79,South,181,0.0,0.0,76,0.00,,,0.00,VWS V14.01,2013-07-04 12:06:00,
2013-07-04 06:11:00,55.0,47.9,29.79,SW,216,3.0,3.0,77,0.00,,,0.00,VWS V14.01,2013-07-04 12:11:00,
2013-07-04 06:16:00,54.6,48.6,29.79,SW,232,4.0,5.0,80,0.00,,,0.00,VWS V14.01,2013-07-04 12:16:00,
2013-07-04 06:21:00,53.9,48.5,29.79,WSW,237,0.0,5.0,82,0.00,,,0.00,VWS V14.01,2013-07-04 12:21:00,
2013-07-04 06:26:00,53.4,47.7,29.79,WSW,237,0.0,5.0,81,0.00,,,0.00,VWS V14.01,2013-07-04 12:26:00,
2013-07-04 06:31:00,53.4,48.0,29.79,SW,236,0.0,5.0,82,0.00,,,0.00,VWS V14.01,2013-07-04 12:31:00,
2013-07-04 06:36:00,53.4,48.0,29.78,WSW,237,0.0,0.0,82,0.00,,,0.00,VWS V14.01,2013-07-04 12:36:00,
2013-07-04 06:41:00,53.4,48.0,29.78,WSW,237,0.0,0.0,82,0.00,,,0.00,VWS V14.01,2013-07-04 12:41:00,
2013-07-04 06:46:00,53.6,47.9,29.78,WSW,237,0.0,0.0,81,0.00,,,0.00,VWS V14.01,2013-07-04 12:46:00,
2013-07-04 06:51:00,54.1,47.7,29.78,SW,236,0.0,2.0,79,0.00,,,0.00,VWS V14.01,2013-07-04 12:51:00,
2013-07-04 06:56:00,54.5,48.1,29.79,WSW,237,0.0,2.0,79,0.00,,,0.00,VWS V14.01,2013-07-04 12:56:00,
2013-07-04 07:01:00,54.7,48.3,29.79,WSW,237,0.0,2.0,79,0.00,,,0.00,VWS V14.01,2013-07-04 13:01:00,
2013-07-04 07:06:00,54.9,48.9,29.79,WSW,237,0.0,0.0,80,0.00,,,0.00,VWS V14.01,2013-07-04 13:06:00,
2013-07-04 07:11:00,55.2,49.5,29.79,SW,236,0.0,0.0,81,0.00,,,0.00,VWS V14.01,2013-07-04 13:11:00,
2013-07-04 07:16:00,55.5,49.8,29.79,SW,236,1.0,3.0,81,0.00,,,0.00,VWS V14.01,2013-07-04 13:16:00,
2013-07-04 07:21:00,55.7,49.6,29.79,WSW,237,0.0,3.0,80,0.00,,,0.00,VWS V14.01,2013-07-04 13:21:00,
2013-07-04 07:26:00,56.3,50.2,29.79,SW,236,1.0,3.0,80,0.00,,,0.00,VWS V14.01,2013-07-04 13:26:00,
2013-07-04 07:30:00,56.5,50.4,29.79,WSW,237,0.0,4.0,80,0.00,,,0.00,VWS V14.01,2013-07-04 13:30:00,
2013-07-04 07:36:00,57.1,51.0,29.79,WSW,237,0.0,0.0,80,0.00,,,0.00,VWS V14.01,2013-07-04 13:36:00,
2013-07-04 07:41:00,57.9,51.1,29.79,WSW,237,0.0,2.0,78,0.00,,,0.00,VWS V14.01,2013-07-04 13:41:00,
2013-07-04 07:46:00,57.8,50.7,29.79,WSW,237,0.0,2.0,77,0.00,,,0.00,VWS V14.01,2013-07-04 13:46:00,
2013-07-04 07:51:00,57.9,50.7,29.79,WSW,237,0.0,2.0,77,0.00,,,0.00,VWS V14.01,2013-07-04 13:51:00,
2013-07-04 07:56:00,58.1,50.9,29.79,WSW,237,0.0,2.0,77,0.00,,,0.00,VWS V14.01,2013-07-04 13:56:00,
2013-07-04 08:01:00,58.8,51.3,29.79,WSW,237,0.0,2.0,76,0.00,,,0.00,VWS V14.01,2013-07-04 14:01:00,
2013-07-04 08:06:00,59.0,51.1,29.79,WSW,237,0.0,0.0,75,0.00,,,0.00,VPLive 1.2.5.27,2013-07-04 14:06:00,
2013-07-04 08:11:00,59.3,51.4,29.79,WSW,237,0.0,0.0,75,0.00,,,0.00,VWS V14.01,2013-07-04 14:11:00,
2013-07-04 08:16:00,60.0,50.9,29.78,WSW,237,0.0,2.0,72,0.00,,,0.00,VPLive 1.2.5.27,2013-07-04 14:16:00,
2013-07-04 08:21:00,60.3,51.2,29.78,WSW,237,1.0,2.0,72,0.00,,,0.00,VWS V14.01,2013-07-04 14:21:00,
2013-07-04 08:26:00,60.4,51.0,29.78,WSW,237,0.0,2.0,71,0.00,,,0.00,VWS V14.01,2013-07-04 14:26:00,
2013-07-04 08:31:00,60.7,51.6,29.78,WSW,237,0.0,2.0,72,0.00,,,0.00,VWS V14.01,2013-07-04 14:31:00,
2013-07-04 08:36:00,61.2,51.3,29.78,WSW,237,0.0,0.0,70,0.00,,,0.00,VWS V14.01,2013-07-04 14:36:00,
2013-07-04 08:41:00,62.1,51.4,29.78,WSW,237,0.0,0.0,68,0.00,,,0.00,VWS V14.01,2013-07-04 14:41:00,
2013-07-04 08:46:00,63.2,52.1,29.78,WSW,237,0.0,0.0,67,0.00,,,0.00,VWS V14.01,2013-07-04 14:46:00,
2013-07-04 08:51:00,64.0,52.0,29.78,SW,235,0.0,0.0,65,0.00,,,0.00,VWS V14.01,2013-07-04 14:51:00,
2013-07-04 08:56:00,64.3,52.3,29.78,SW,235,0.0,1.0,65,0.00,,,0.00,VWS V14.01,2013-07-04 14:56:00,
2013-07-04 09:01:00,64.5,52.5,29.78,SW,235,0.0,1.0,65,0.00,,,0.00,VWS V14.01,2013-07-04 15:01:00,
2013-07-04 09:06:00,64.9,53.3,29.78,SW,235,0.0,0.0,66,0.00,,,0.00,VWS V14.01,2013-07-04 15:06:00,
2013-07-04 09:11:00,65.6,53.1,29.77,SW,232,0.0,1.0,64,0.00,,,0.00,VWS V14.01,2013-07-04 15:11:00,
2013-07-04 09:16:00,66.2,53.2,29.77,South,180,0.0,1.0,63,0.00,,,0.00,VWS V14.01,2013-07-04 15:16:00,
2013-07-04 09:21:00,66.1,53.2,29.77,South,180,0.0,1.0,63,0.00,,,0.00,VWS V14.01,2013-07-04 15:21:00,
2013-07-04 09:26:00,66.6,54.1,29.77,South,180,0.0,1.0,64,0.00,,,0.00,VWS V14.01,2013-07-04 15:26:00,
2013-07-04 09:31:00,67.1,54.1,29.77,SE,138,0.0,2.0,63,0.00,,,0.00,VPLive 1.2.5.27,2013-07-04 15:31:00,
2013-07-04 09:36:00,67.3,54.7,29.77,SE,131,0.0,4.0,64,0.00,,,0.00,VWS V14.01,2013-07-04 15:36:00,
2013-07-04 09:41:00,67.7,55.5,29.77,SE,130,0.0,4.0,65,0.00,,,0.00,VWS V14.01,2013-07-04 15:41:00,
2013-07-04 09:46:00,68.2,55.6,29.77,ENE,70,0.0,6.0,64,0.00,,,0.00,VWS V14.01,2013-07-04 15:46:00,
2013-07-04 09:51:00,68.6,56.4,29.77,ENE,70,0.0,6.0,65,0.00,,,0.00,VWS V14.01,2013-07-04 15:51:00,
2013-07-04 09:56:00,68.8,55.7,29.77,ENE,67,0.0,6.0,63,0.00,,,0.00,VWS V14.01,2013-07-04 15:56:00,
2013-07-04 10:01:00,69.4,55.8,29.76,East,80,4.0,6.0,62,0.00,,,0.00,VWS V14.01,2013-07-04 16:01:00,
2013-07-04 10:06:00,69.7,56.6,29.76,ENE,76,2.0,5.0,63,0.00,,,0.00,VWS V14.01,2013-07-04 16:06:00,
2013-07-04 10:11:00,70.0,56.8,29.76,NE,55,1.0,6.0,63,0.00,,,0.00,VWS V14.01,2013-07-04 16:11:00,
2013-07-04 10:16:00,70.5,57.3,29.76,NE,48,6.0,6.0,63,0.00,,,0.00,VWS V14.01,2013-07-04 16:16:00,
2013-07-04 10:21:00,70.8,57.2,29.76,ENE,60,3.0,7.0,62,0.00,,,0.00,VWS V14.01,2013-07-04 16:21:00,
2013-07-04 10:26:00,71.1,57.0,29.75,ENE,61,4.0,7.0,61,0.00,,,0.00,VWS V14.01,2013-07-04 16:26:00,
2013-07-04 10:31:00,71.8,58.1,29.75,NE,56,5.0,7.0,62,0.00,,,0.00,VWS V14.01,2013-07-04 16:31:00,
2013-07-04 10:36:00,72.7,58.0,29.75,East,83,0.0,6.0,60,0.00,,,0.00,VWS V14.01,2013-07-04 16:36:00,
2013-07-04 10:41:00,73.5,58.3,29.75,ENE,74,2.0,6.0,59,0.00,,,0.00,VWS V14.01,2013-07-04 16:41:00,
2013-07-04 10:46:00,74.1,56.4,29.75,ENE,60,0.0,6.0,54,0.00,,,0.00,VWS V14.01,2013-07-04 16:46:00,
2013-07-04 10:51:00,74.8,57.6,29.75,ENE,60,0.0,6.0,55,0.00,,,0.00,VWS V14.01,2013-07-04 16:51:00,
2013-07-04 10:56:00,75.6,55.7,29.75,ENE,60,0.0,6.0,50,0.00,,,0.00,VWS V14.01,2013-07-04 16:56:00,
2013-07-04 11:01:00,76.1,56.7,29.74,NE,46,7.0,8.0,51,0.00,,,0.00,VWS V14.01,2013-07-04 17:01:00,
2013-07-04 11:06:00,76.2,55.1,29.74,NNE,20,1.0,7.0,48,0.00,,,0.00,VWS V14.01,2013-07-04 17:06:00,
2013-07-04 11:11:00,76.7,53.8,29.74,NE,42,3.0,7.0,45,0.00,,,0.00,VWS V14.01,2013-07-04 17:11:00,
2013-07-04 11:16:00,77.0,54.7,29.74,NE,43,9.0,10.0,46,0.00,,,0.00,VWS V14.01,2013-07-04 17:16:00,
2013-07-04 11:21:00,76.9,55.2,29.74,ENE,61,2.0,10.0,47,0.00,,,0.00,VWS V14.01,2013-07-04 17:21:00,
2013-07-04 11:26:00,76.9,52.7,29.74,NNE,33,0.0,10.0,43,0.00,,,0.00,VWS V14.01,2013-07-04 17:26:00,
2013-07-04 11:30:00,77.5,54.5,29.74,SSW,192,4.0,10.0,45,0.00,,,0.00,VWS V14.01,2013-07-04 17:30:00,
2013-07-04 11:35:00,78.7,53.0,29.73,SW,228,0.0,4.0,41,0.00,,,0.00,VWS V14.01,2013-07-04 17:35:00,
2013-07-04 11:40:00,79.1,49.9,29.73,West,259,0.0,5.0,36,0.00,,,0.00,VWS V14.01,2013-07-04 17:40:00,
2013-07-04 11:45:00,79.2,49.2,29.73,WNW,301,0.0,5.0,35,0.00,,,0.00,VWS V14.01,2013-07-04 17:45:00,
2013-07-04 11:50:00,79.3,46.9,29.73,WNW,303,0.0,5.0,32,0.00,,,0.00,VWS V14.01,2013-07-04 17:50:00,
2013-07-04 11:55:00,79.5,49.5,29.73,WNW,299,1.0,5.0,35,0.00,,,0.00,VWS V14.01,2013-07-04 17:55:00,
2013-07-04 12:01:00,80.0,50.7,29.73,WNW,294,0.0,5.0,36,0.00,,,0.00,VWS V14.01,2013-07-04 18:01:00,
2013-07-04 12:06:00,80.5,50.4,29.72,SSW,207,4.0,4.0,35,0.00,,,0.00,VWS V14.01,2013-07-04 18:06:00,
2013-07-04 12:11:00,81.0,50.0,29.72,South,173,0.0,7.0,34,0.00,,,0.00,VWS V14.01,2013-07-04 18:11:00,
2013-07-04 12:16:00,80.8,50.6,29.72,WNW,290,1.0,8.0,35,0.00,,,0.00,VWS V14.01,2013-07-04 18:16:00,
2013-07-04 12:21:00,81.0,51.6,29.72,NW,309,5.0,9.0,36,0.00,,,0.00,VWS V14.01,2013-07-04 18:21:00,
2013-07-04 12:25:00,80.9,46.6,29.72,North,355,6.0,11.0,30,0.00,,,0.00,VWS V14.01,2013-07-04 18:25:00,
2013-07-04 12:30:00,80.7,48.1,29.72,NW,319,5.0,11.0,32,0.00,,,0.00,VWS V14.01,2013-07-04 18:30:00,
2013-07-04 12:35:00,81.0,46.7,29.72,NW,312,3.0,9.0,30,0.00,,,0.00,VWS V14.01,2013-07-04 18:35:00,
2013-07-04 12:41:00,80.8,46.5,29.72,North,11,0.0,9.0,30,0.00,,,0.00,VWS V14.01,2013-07-04 18:41:00,
2013-07-04 12:45:00,81.5,49.7,29.72,WSW,251,8.0,11.0,33,0.00,,,0.00,VWS V14.01,2013-07-04 18:45:00,
2013-07-04 12:50:00,81.8,49.1,29.72,WNW,294,9.0,11.0,32,0.00,,,0.00,VWS V14.01,2013-07-04 18:50:00,
2013-07-04 12:55:00,81.7,48.1,29.71,WNW,295,4.0,9.0,31,0.00,,,0.00,VPLive 1.2.5.27,2013-07-04 18:55:00,
2013-07-04 13:00:00,82.0,46.6,29.71,West,279,10.0,13.0,29,0.00,,,0.00,VWS V14.01,2013-07-04 19:00:00,
2013-07-04 13:05:00,81.8,46.5,29.71,WSW,244,4.0,11.0,29,0.00,,,0.00,VWS V14.01,2013-07-04 19:05:00,
2013-07-04 13:10:00,81.7,46.4,29.71,West,267,0.0,11.0,29,0.00,,,0.00,VWS V14.01,2013-07-04 19:10:00,
2013-07-04 13:15:00,81.9,47.5,29.71,WNW,282,2.0,11.0,30,0.00,,,0.00,VWS V14.01,2013-07-04 19:15:00,
2013-07-04 13:20:00,82.5,50.5,29.71,West,277,9.0,11.0,33,0.00,,,0.00,VWS V14.01,2013-07-04 19:20:00,
2013-07-04 13:25:00,82.4,47.9,29.70,West,259,6.0,12.0,30,0.00,,,0.00,VWS V14.01,2013-07-04 19:25:00,
2013-07-04 13:30:00,82.5,48.8,29.70,WNW,295,5.0,12.0,31,0.00,,,0.00,VWS V14.01,2013-07-04 19:30:00,
2013-07-04 13:35:00,82.5,48.0,29.70,WNW,300,4.0,5.0,30,0.00,,,0.00,VWS V14.01,2013-07-04 19:35:00,
2013-07-04 13:40:00,82.7,47.2,29.70,West,275,8.0,13.0,29,0.00,,,0.00,VWS V14.01,2013-07-04 19:40:00,
2013-07-04 13:45:00,82.8,49.1,29.70,West,263,16.0,18.0,31,0.00,,,0.00,VWS V14.01,2013-07-04 19:45:00,
2013-07-04 13:50:00,82.7,49.9,29.70,West,273,2.0,18.0,32,0.00,,,0.00,VWS V14.01,2013-07-04 19:50:00,
2013-07-04 13:55:00,83.0,50.1,29.70,West,270,2.0,18.0,32,0.00,,,0.00,VWS V14.01,2013-07-04 19:55:00,
2013-07-04 14:00:00,83.4,47.8,29.70,WSW,250,5.0,18.0,29,0.00,,,0.00,VWS V14.01,2013-07-04 20:00:00,
2013-07-04 14:05:00,83.1,48.5,29.70,West,271,8.0,15.0,30,0.00,,,0.00,VWS V14.01,2013-07-04 20:05:00,
2013-07-04 14:10:00,82.9,48.3,29.70,WNW,282,8.0,15.0,30,0.00,,,0.00,VWS V14.01,2013-07-04 20:10:00,
2013-07-04 14:15:00,83.1,48.5,29.69,West,275,10.0,21.0,30,0.00,,,0.00,VWS V14.01,2013-07-04 20:15:00,
2013-07-04 14:20:00,83.1,49.4,29.69,West,277,12.0,21.0,31,0.00,,,0.00,VWS V14.01,2013-07-04 20:20:00,
2013-07-04 14:25:00,83.3,47.8,29.69,WNW,285,10.0,21.0,29,0.00,,,0.00,VWS V14.01,2013-07-04 20:25:00,
2013-07-04 14:30:00,83.6,47.1,29.68,WNW,300,7.0,21.0,28,0.00,,,0.00,VWS V14.01,2013-07-04 20:30:00,
2013-07-04 14:35:00,83.6,48.0,29.68,WSW,252,9.0,20.0,29,0.00,,,0.00,VWS V14.01,2013-07-04 20:35:00,
2013-07-04 14:40:00,84.2,49.4,29.68,West,259,8.0,20.0,30,0.00,,,0.00,VWS V14.01,2013-07-04 20:40:00,
2013-07-04 14:45:00,84.6,49.8,29.68,West,263,13.0,20.0,30,0.00,,,0.00,VWS V14.01,2013-07-04 20:45:00,
2013-07-04 14:50:00,84.3,45.7,29.68,WSW,247,13.0,20.0,26,0.00,,,0.00,VWS V14.01,2013-07-04 20:50:00,
2013-07-04 14:55:00,84.3,48.6,29.67,SW,235,13.0,20.0,29,0.00,,,0.00,VWS V14.01,2013-07-04 20:55:00,
2013-07-04 15:00:00,83.2,47.7,29.67,West,267,5.0,20.0,29,0.00,,,0.00,VWS V14.01,2013-07-04 21:00:00,
2013-07-04 15:05:00,83.1,47.6,29.67,West,266,9.0,12.0,29,0.00,,,0.00,VWS V14.01,2013-07-04 21:05:00,
2013-07-04 15:10:00,82.9,47.4,29.67,SSW,211,9.0,13.0,29,0.00,,,0.00,VWS V14.01,2013-07-04 21:10:00,
2013-07-04 15:15:00,82.9,47.4,29.67,West,261,6.0,13.0,29,0.00,,,0.00,VWS V14.01,2013-07-04 21:15:00,
2013-07-04 15:20:00,83.6,49.8,29.66,WSW,257,9.0,13.0,31,0.00,,,0.00,VWS V14.01,2013-07-04 21:20:00,
2013-07-04 15:25:00,85.2,52.0,29.66,WNW,287,16.0,20.0,32,0.00,,,0.00,VWS V14.01,2013-07-04 21:25:00,
2013-07-04 15:30:00,85.1,51.1,29.66,NW,320,13.0,20.0,31,0.00,,,0.00,VWS V14.01,2013-07-04 21:30:00,
2013-07-04 15:35:00,84.8,49.0,29.66,WNW,303,5.0,14.0,29,0.00,,,0.00,VWS V14.01,2013-07-04 21:35:00,
2013-07-04 15:40:00,84.9,50.0,29.66,WNW,299,11.0,16.0,30,0.00,,,0.00,VWS V14.01,2013-07-04 21:40:00,
2013-07-04 15:45:00,84.6,48.9,29.66,WNW,300,10.0,19.0,29,0.00,,,0.00,VWS V14.01,2013-07-04 21:45:00,
2013-07-04 15:50:00,83.0,51.0,29.66,WNW,294,7.0,19.0,33,0.00,,,0.00,VWS V14.01,2013-07-04 21:50:00,
2013-07-04 15:55:00,82.6,50.6,29.65,West,263,3.0,19.0,33,0.00,,,0.00,VWS V14.01,2013-07-04 21:55:00,
2013-07-04 16:00:00,83.9,51.8,29.64,NNW,332,12.0,25.0,33,0.00,,,0.00,VWS V14.01,2013-07-04 22:00:00,
2013-07-04 16:05:00,84.5,49.7,29.65,NNW,340,6.0,14.0,30,0.00,,,0.00,VWS V14.01,2013-07-04 22:05:00,
2013-07-04 16:10:00,85.6,50.7,29.65,West,280,9.0,14.0,30,0.00,,,0.00,VWS V14.01,2013-07-04 22:10:00,
2013-07-04 16:15:00,84.8,49.0,29.65,WSW,254,6.0,14.0,29,0.00,,,0.00,VWS V14.01,2013-07-04 22:15:00,
2013-07-04 16:20:00,83.0,50.1,29.65,WNW,300,8.0,14.0,32,0.00,,,0.00,VWS V14.01,2013-07-04 22:20:00,
2013-07-04 16:25:00,83.1,51.9,29.65,NW,314,3.0,14.0,34,0.00,,,0.00,VWS V14.01,2013-07-04 22:25:00,
2013-07-04 16:30:00,84.8,52.5,29.65,NW,312,10.0,14.0,33,0.00,,,0.00,VWS V14.01,2013-07-04 22:30:00,
2013-07-04 16:35:00,84.3,51.3,29.65,NW,308,13.0,15.0,32,0.00,,,0.00,VWS V14.01,2013-07-04 22:35:00,
2013-07-04 16:40:00,83.9,51.8,29.64,WNW,303,9.0,16.0,33,0.00,,,0.00,VWS V14.01,2013-07-04 22:40:00,
2013-07-04 16:45:00,84.4,52.2,29.64,NW,308,5.0,16.0,33,0.00,,,0.00,VWS V14.01,2013-07-04 22:45:00,
2013-07-04 16:50:00,84.6,48.9,29.64,NNE,18,2.0,16.0,29,0.00,,,0.00,VWS V14.01,2013-07-04 22:50:00,
2013-07-04 16:55:00,85.3,50.4,29.63,WNW,300,12.0,18.0,30,0.00,,,0.00,VWS V14.01,2013-07-04 22:55:00,
2013-07-04 17:00:00,85.2,50.3,29.63,WNW,290,10.0,18.0,30,0.00,,,0.00,VWS V14.01,2013-07-04 23:00:00,
2013-07-04 17:05:00,85.0,51.0,29.63,WNW,296,8.0,13.0,31,0.00,,,0.00,VWS V14.01,2013-07-04 23:05:00,
2013-07-04 17:10:00,84.6,49.8,29.63,NNW,344,8.0,15.0,30,0.00,,,0.00,VWS V14.01,2013-07-04 23:10:00,
2013-07-04 17:15:00,83.6,51.5,29.63,NNW,342,12.0,15.0,33,0.00,,,0.00,VWS V14.01,2013-07-04 23:15:00,
2013-07-04 17:20:00,83.0,51.0,29.63,NNW,334,11.0,16.0,33,0.00,,,0.00,VWS V14.01,2013-07-04 23:20:00,
2013-07-04 17:25:00,82.3,51.2,29.63,North,355,7.0,16.0,34,0.00,,,0.00,VWS V14.01,2013-07-04 23:25:00,
2013-07-04 17:30:00,82.9,51.7,29.63,NNW,342,11.0,16.0,34,0.00,,,0.00,VWS V14.01,2013-07-04 23:30:00,
2013-07-04 17:35:00,83.9,50.9,29.63,North,5,12.0,17.0,32,0.00,,,0.00,VWS V14.01,2013-07-04 23:35:00,
2013-07-04 17:40:00,83.9,50.9,29.63,NNW,342,14.0,17.0,32,0.00,,,0.00,VWS V14.01,2013-07-04 23:40:00,
2013-07-04 17:45:00,84.1,51.9,29.63,NW,316,8.0,17.0,33,0.00,,,0.00,VWS V14.01,2013-07-04 23:45:00,
2013-07-04 17:50:00,83.6,50.7,29.63,NW,310,13.0,18.0,32,0.00,,,0.00,VWS V14.01,2013-07-04 23:50:00,
2013-07-04 17:55:00,83.4,52.1,29.63,NW,306,14.0,19.0,34,0.00,,,0.00,VWS V14.01,2013-07-04 23:55:00,
2013-07-04 18:00:00,83.3,52.0,29.63,NW,309,13.0,19.0,34,0.00,,,0.00,VWS V14.01,2013-07-05 00:00:00,
2013-07-04 18:05:00,83.0,51.8,29.63,NW,308,11.0,18.0,34,0.00,,,0.00,VWS V14.01,2013-07-05 00:05:00,
2013-07-04 18:10:00,82.5,49.7,29.63,North,5,6.0,18.0,32,0.00,,,0.00,VWS V14.01,2013-07-05 00:10:00,
2013-07-04 18:15:00,82.3,50.3,29.63,North,355,17.0,19.0,33,0.00,,,0.00,VWS V14.01,2013-07-05 00:15:00,
2013-07-04 18:20:00,82.3,51.9,29.63,NNW,328,7.0,19.0,35,0.00,,,0.00,VWS V14.01,2013-07-05 00:20:00,
2013-07-04 18:25:00,82.4,51.2,29.63,North,360,11.0,19.0,34,0.00,,,0.00,VWS V14.01,2013-07-05 00:25:00,
2013-07-04 18:30:00,81.8,49.9,29.63,NW,325,10.0,19.0,33,0.00,,,0.00,VWS V14.01,2013-07-05 00:30:00,
2013-07-04 18:35:00,81.6,50.5,29.63,WNW,298,15.0,18.0,34,0.00,,,0.00,VWS V14.01,2013-07-05 00:35:00,
2013-07-04 18:40:00,81.5,51.2,29.63,North,351,7.0,18.0,35,0.00,,,0.00,VWS V14.01,2013-07-05 00:40:00,
2013-07-04 18:45:00,81.6,49.7,29.63,WNW,296,8.0,18.0,33,0.00,,,0.00,VWS V14.01,2013-07-05 00:45:00,
2013-07-04 18:50:00,81.2,50.2,29.63,NW,318,12.0,19.0,34,0.00,,,0.00,VWS V14.01,2013-07-05 00:50:00,
2013-07-04 18:55:00,80.9,49.1,29.63,NNW,339,10.0,19.0,33,0.00,,,0.00,VWS V14.01,2013-07-05 00:55:00,
2013-07-04 19:00:00,80.8,49.0,29.63,NNW,331,11.0,19.0,33,0.00,,,0.00,VWS V14.01,2013-07-05 01:00:00,
2013-07-04 19:05:00,80.5,48.8,29.63,NNW,337,11.0,16.0,33,0.00,,,0.00,VWS V14.01,2013-07-05 01:05:00,
2013-07-04 19:10:00,80.5,48.8,29.63,NW,318,8.0,16.0,33,0.00,,,0.00,VWS V14.01,2013-07-05 01:10:00,
2013-07-04 19:15:00,80.2,47.7,29.63,NW,326,11.0,23.0,32,0.00,,,0.00,VWS V14.01,2013-07-05 01:15:00,
2013-07-04 19:20:00,80.1,48.4,29.63,West,278,11.0,23.0,33,0.00,,,0.00,VWS V14.01,2013-07-05 01:20:00,
2013-07-04 19:25:00,80.0,49.9,29.63,WNW,295,9.0,23.0,35,0.00,,,0.00,VWS V14.01,2013-07-05 01:25:00,
2013-07-04 19:30:00,79.9,47.4,29.64,NNW,333,9.0,23.0,32,0.00,,,0.00,VWS V14.01,2013-07-05 01:30:00,
2013-07-04 19:35:00,79.9,47.4,29.64,NW,315,11.0,16.0,32,0.00,,,0.00,VWS V14.01,2013-07-05 01:35:00,
2013-07-04 19:40:00,79.4,45.3,29.64,West,273,13.0,19.0,30,0.00,,,0.00,VWS V14.01,2013-07-05 01:40:00,
2013-07-04 19:45:00,79.1,45.0,29.64,NW,325,9.0,19.0,30,0.00,,,0.00,VWS V14.01,2013-07-05 01:45:00,
2013-07-04 19:50:00,78.7,42.9,29.64,NNW,329,12.0,20.0,28,0.00,,,0.00,VWS V14.01,2013-07-05 01:50:00,
2013-07-04 19:55:00,78.7,44.7,29.64,WNW,296,11.0,20.0,30,0.00,,,0.00,VWS V14.01,2013-07-05 01:55:00,
2013-07-04 20:00:00,78.4,43.5,29.64,West,277,7.0,20.0,29,0.00,,,0.00,VWS V14.01,2013-07-05 02:00:00,
2013-07-04 20:05:00,78.2,43.4,29.64,WNW,290,12.0,20.0,29,0.00,,,0.00,VWS V14.01,2013-07-05 02:05:00,
2013-07-04 20:10:00,77.9,42.2,29.65,WNW,297,15.0,20.0,28,0.00,,,0.00,VWS V14.01,2013-07-05 02:10:00,
2013-07-04 20:15:00,77.5,42.8,29.65,WNW,285,9.0,20.0,29,0.00,,,0.00,VWS V14.01,2013-07-05 02:15:00,
2013-07-04 20:20:00,77.3,41.7,29.65,WNW,286,18.0,20.0,28,0.00,,,0.00,VWS V14.01,2013-07-05 02:20:00,
2013-07-04 20:25:00,77.3,42.6,29.65,WNW,294,5.0,20.0,29,0.00,,,0.00,VWS V14.01,2013-07-05 02:25:00,
2013-07-04 20:30:00,76.6,43.7,29.66,West,270,10.0,20.0,31,0.00,,,0.00,VWS V14.01,2013-07-05 02:30:00,
2013-07-04 20:35:00,76.1,44.1,29.66,West,259,12.0,13.0,32,0.00,,,0.00,VWS V14.01,2013-07-05 02:35:00,
2013-07-04 20:40:00,76.3,42.6,29.66,West,266,9.0,16.0,30,0.00,,,0.00,VWS V14.01,2013-07-05 02:40:00,
2013-07-04 20:45:00,76.4,43.6,29.66,West,281,8.0,16.0,31,0.00,,,0.00,VWS V14.01,2013-07-05 02:45:00,
2013-07-04 20:50:00,76.4,42.7,29.66,West,269,11.0,16.0,30,0.00,,,0.00,VWS V14.01,2013-07-05 02:50:00,
2013-07-04 20:55:00,76.0,43.2,29.66,West,272,12.0,16.0,31,0.00,,,0.00,VWS V14.01,2013-07-05 02:55:00,
2013-07-04 21:00:00,75.6,43.7,29.66,West,279,10.0,16.0,32,0.00,,,0.00,VWS V14.01,2013-07-05 03:00:00,
2013-07-04 21:05:00,75.7,42.1,29.66,WSW,254,10.0,17.0,30,0.00,,,0.00,VWS V14.01,2013-07-05 03:05:00,
2013-07-04 21:10:00,75.9,42.3,29.67,West,263,13.0,17.0,30,0.00,,,0.00,VWS V14.01,2013-07-05 03:10:00,
2013-07-04 21:15:00,75.8,42.2,29.67,West,261,9.0,17.0,30,0.00,,,0.00,VWS V14.01,2013-07-05 03:15:00,
2013-07-04 21:20:00,75.1,42.4,29.67,West,265,10.0,17.0,31,0.00,,,0.00,VWS V14.01,2013-07-05 03:20:00,
2013-07-04 21:25:00,74.6,42.0,29.67,West,263,6.0,17.0,31,0.00,,,0.00,VWS V14.01,2013-07-05 03:25:00,
2013-07-04 21:30:00,74.3,42.6,29.67,WSW,256,6.0,17.0,32,0.00,,,0.00,VWS V14.01,2013-07-05 03:30:00,
2013-07-04 21:35:00,73.8,42.1,29.67,WSW,244,7.0,14.0,32,0.00,,,0.00,VWS V14.01,2013-07-05 03:35:00,
2013-07-04 21:40:00,73.6,42.0,29.68,SW,233,8.0,14.0,32,0.00,,,0.00,VWS V14.01,2013-07-05 03:40:00,
2013-07-04 21:45:00,73.6,42.0,29.68,WSW,257,10.0,14.0,32,0.00,,,0.00,VWS V14.01,2013-07-05 03:45:00,
2013-07-04 21:50:00,73.8,42.1,29.68,West,261,8.0,15.0,32,0.00,,,0.00,VWS V14.01,2013-07-05 03:50:00,
2013-07-04 21:55:00,73.6,42.0,29.68,WSW,246,11.0,16.0,32,0.00,,,0.00,VWS V14.01,2013-07-05 03:55:00,
2013-07-04 22:00:00,73.3,42.5,29.68,WSW,248,9.0,16.0,33,0.00,,,0.00,VWS V14.01,2013-07-05 04:00:00,
2013-07-04 22:01:00,73.3,42.5,29.68,WSW,247,9.0,16.0,33,0.00,,,0.00,VWS V14.01,2013-07-05 04:01:00,
2013-07-04 22:06:00,72.9,42.1,29.68,WSW,254,11.0,16.0,33,0.00,,,0.00,VWS V14.01,2013-07-05 04:06:00,
2013-07-04 22:11:00,72.8,42.0,29.68,West,263,12.0,18.0,33,0.00,,,0.00,VWS V14.01,2013-07-05 04:11:00,
2013-07-04 22:16:00,72.6,42.7,29.69,WSW,245,11.0,18.0,34,0.00,,,0.00,VWS V14.01,2013-07-05 04:16:00,
2013-07-04 22:21:00,72.4,42.5,29.68,West,259,13.0,20.0,34,0.00,,,0.00,VWS V14.01,2013-07-05 04:21:00,
2013-07-04 22:26:00,72.2,42.3,29.68,WSW,257,10.0,20.0,34,0.00,,,0.00,VWS V14.01,2013-07-05 04:26:00,
2013-07-04 22:31:00,72.2,42.3,29.68,WSW,255,11.0,20.0,34,0.00,,,0.00,VWS V14.01,2013-07-05 04:31:00,
2013-07-04 22:36:00,71.9,42.0,29.68,SW,223,17.0,20.0,34,0.00,,,0.00,VWS V14.01,2013-07-05 04:36:00,
2013-07-04 22:41:00,71.6,41.8,29.69,West,260,15.0,20.0,34,0.00,,,0.00,VWS V14.01,2013-07-05 04:41:00,
2013-07-04 22:46:00,71.1,42.1,29.68,West,263,12.0,20.0,35,0.00,,,0.00,VWS V14.01,2013-07-05 04:46:00,
2013-07-04 22:51:00,70.6,41.7,29.68,WSW,252,10.0,20.0,35,0.00,,,0.00,VWS V14.01,2013-07-05 04:51:00,
2013-07-04 22:56:00,70.5,42.3,29.68,West,260,7.0,20.0,36,0.00,,,0.00,VWS V14.01,2013-07-05 04:56:00,
2013-07-04 23:01:00,70.4,42.9,29.69,West,265,17.0,20.0,37,0.00,,,0.00,VWS V14.01,2013-07-05 05:01:00,
2013-07-04 23:06:00,70.6,43.1,29.69,West,259,9.0,17.0,37,0.00,,,0.00,VWS V14.01,2013-07-05 05:06:00,
2013-07-04 23:11:00,70.2,42.7,29.69,SW,232,11.0,14.0,37,0.00,,,0.00,VPLive 1.2.5.27,2013-07-05 05:11:00,
2013-07-04 23:16:00,69.7,43.0,29.69,South,179,8.0,17.0,38,0.00,,,0.00,VWS V14.01,2013-07-05 05:16:00,
2013-07-04 23:21:00,69.2,43.2,29.69,SW,217,7.0,17.0,39,0.00,,,0.00,VWS V14.01,2013-07-05 05:21:00,
2013-07-04 23:26:00,68.6,43.3,29.69,SSW,200,5.0,17.0,40,0.00,,,0.00,VWS V14.01,2013-07-05 05:26:00,
2013-07-04 23:31:00,68.4,43.2,29.69,WSW,245,10.0,17.0,40,0.00,,,0.00,VWS V14.01,2013-07-05 05:31:00,
2013-07-04 23:36:00,68.8,43.5,29.69,SW,215,5.0,12.0,40,0.00,,,0.00,VWS V14.01,2013-07-05 05:36:00,
2013-07-04 23:41:00,68.8,43.5,29.69,SW,236,5.0,12.0,40,0.00,,,0.00,VWS V14.01,2013-07-05 05:41:00,
2013-07-04 23:46:00,68.8,43.5,29.69,WSW,242,8.0,14.0,40,0.00,,,0.00,VWS V14.01,2013-07-05 05:46:00,
2013-07-04 23:51:00,69.0,43.7,29.69,SW,221,7.0,14.0,40,0.00,,,0.00,VWS V14.01,2013-07-05 05:51:00,
2013-07-04 23:56:00,68.7,43.4,29.69,SW,219,8.0,14.0,40,0.00,,,0.00,VWS V14.01,2013-07-05 05:56:00,